Wind_Speed
9 9 8 8 8 9 9 8 9 9 9 9 8 8 8 9 10 10 10 11 11 11 11 10 11 11 11 12 12 12 11 11 12 12 12 12 12 12 12 12 12 11 11 11
9 9 9 9 8 9 9 8 8 8 8 8 8 8 8 8 9 9 10 10 11 11 11 11 11 11 11 11 11 11 11 11 11 12 11 12 12 12 12 12 12 12 12 11
8 8 9 9 8 8 8 8 8 8 8 8 8 8 8 8 9 9 9 9 10 10 11 11 11 11 11 11 11 11 12 12 12 12 12 12 11 12 12 12 12 12 12 12
8 8 9 9 8 9 8 8 9 8 8 8 8 8 8 9 9 8 8 9 9 10 11 10 10 10 11 11 11 11 12 12 13 13 13 12 12 12 11 11 12 13 13 13
8 9 9 9 9 9 9 9 9 9 9 9 9 9 8 9 9 8 9 9 10 10 11 11 11 11 11 11 12 12 12 13 13 13 13 12 12 12 12 12 13 13 13 13
9 9 9 9 9 10 10 10 10 9 9 10 10 10 9 9 9 9 9 10 10 10 11 11 11 11 11 11 12 12 12 12 12 12 12 12 12 13 13 13 13 13 13 13
9 9 8 9 9 9 10 10 10 10 10 11 10 11 10 9 9 9 10 10 10 11 11 12 11 11 12 12 12 12 12 12 12 12 12 12 12 12 13 13 13 13 13 14
10 10 9 9 10 10 10 11 12 11 11 10 10 10 10 10 10 9 10 11 11 12 12 12 12 12 12 13 13 12 12 12 12 12 11 12 12 12 12 13 13 13 14 14
11 11 11 11 12 11 12 13 13 13 13 13 12 11 10 10 10 10 11 11 12 12 13 13 14 13 13 13 13 13 13 13 13 12 12 12 12 12 13 13 13 13 14 14
13 13 13 13 12 12 13 13 14 14 14 14 14 13 12 11 12 12 12 12 12 13 13 13 13 13 12 13 13 13 14 14 13 13 13 13 13 13 14 13 13 14 14 14
14 15 15 14 14 14 14 14 15 15 15 16 16 14 13 14 14 14 13 13 13 13 13 13 14 14 13 13 14 14 14 14 14 14 14 14 14 14 14 14 14 14 15 15
16 16 16 16 16 16 16 16 16 17 17 17 18 15 14 15 15 14 14 14 14 14 14 14 14 14 14 15 14 14 14 14 14 14 14 14 14 14 14 14 14 15 15 16
16 17 17 17 17 17 17 17 17 17 18 17 18 16 15 16 15 14 14 14 14 15 15 15 16 16 15 15 14 14 15 15 15 14 14 14 14 14 14 14 15 15 16 16
17 18 18 18 17 17 17 17 18 18 18 18 18 17 17 17 17 15 15 15 16 16 16 16 16 16 16 16 15 15 15 15 15 15 15 15 15 15 15 15 15 16 16 17
19 19 20 19 18 18 18 17 17 19 19 20 18 19 18 19 18 17 17 16 17 16 16 16 16 16 16 16 15 15 16 16 17 16 16 16 16 16 15 15 16 15 15 15
21 21 21 20 20 20 19 17 18 19 20 21 20 19 19 20 19 19 18 18 18 18 18 17 16 16 17 17 17 16 16 17 17 17 17 16 16 16 16 16 16 16 16 16
22 23 22 21 21 22 21 19 19 20 20 21 21 19 19 20 20 19 18 17 18 18 18 17 17 17 16 17 17 17 17 17 17 17 17 17 17 17 17 17 16 16 16 16
23 23 24 23 23 25 22 21 21 21 21 21 21 20 20 20 20 19 19 19 19 19 18 18 18 17 17 17 17 17 17 16 17 17 16 17 17 18 17 17 16 16 17 17
23 24 25 25 25 26 24 22 22 22 22 22 22 21 21 21 21 20 21 21 21 20 19 18 18 18 18 18 18 18 17 16 17 17 17 17 18 18 18 17 16 16 16 16
24 25 26 27 27 28 24 24 24 24 23 22 23 22 21 21 21 20 22 21 21 21 20 19 19 19 19 18 18 18 18 17 17 17 17 18 18 19 18 18 17 17 17 17
26 26 26 27 28 28 25 24 25 25 23 23 23 23 22 22 21 21 21 21 21 21 20 20 20 20 19 19 18 18 18 18 17 17 17 18 18 19 19 18 18 18 17 17
27 26 26 27 27 26 25 25 25 25 24 24 23 24 23 23 22 22 22 22 22 21 21 21 21 20 20 19 19 19 19 19 19 18 18 18 19 19 20 20 19 19 18 18
28 27 27 27 27 26 26 26 26 26 26 25 25 25 25 24 23 23 23 23 23 22 22 21 21 21 21 21 21 21 20 20 19 19 20 20 20 20 20 20 21 20 20 20
27 27 27 27 27 27 26 26 27 27 27 27 26 26 25 25 25 24 24 24 24 23 23 22 23 23 22 22 23 22 22 21 21 21 21 21 21 22 21 21 22 22 21 21
27 27 28 28 27 28 27 27 27 27 28 28 28 28 27 27 27 26 26 25 25 25 25 24 24 24 23 23 23 23 23 22 22 22 22 22 22 23 23 23 22 22 23 23
28 29 28 28 28 28 27 28 27 27 28 28 28 28 27 27 27 26 26 26 25 25 26 26 25 25 24 24 24 24 24 24 24 23 23 23 23 23 24 24 24 24 24 24
Wind_Direction
265 268 270 270 270 266 266 265 268 269 265 265 270 274 270 272 275 274 272 270 269 270 272 274 278 279 278 279 279 278 277 280 281 279 271 272 275 271 269 271 270 268 267 267
260 264 268 269 271 270 271 272 273 271 269 270 273 276 272 271 277 278 274 271 270 270 273 273 276 277 279 278 277 280 278 278 280 282 275 273 275 272 270 270 268 267 267 266
265 263 264 267 269 271 271 273 275 275 276 279 280 277 278 275 278 277 275 274 273 271 270 272 272 275 279 280 279 279 280 276 277 280 279 277 274 271 269 269 266 265 267 267
262 263 265 267 270 270 272 277 279 277 275 277 283 284 283 280 279 281 282 280 278 275 274 274 275 276 276 278 280 280 279 276 274 274 276 273 270 270 268 270 269 266 267 269
263 265 266 267 267 265 270 275 273 273 273 274 279 282 285 284 283 282 284 285 286 285 284 281 281 279 276 277 278 280 277 276 274 272 274 272 269 269 268 269 270 268 267 268
263 264 266 267 266 265 267 268 269 270 273 275 278 283 292 290 288 286 284 286 288 287 286 284 284 281 278 277 278 278 275 275 274 273 273 272 269 267 267 266 268 268 267 267
261 263 265 266 266 264 266 269 269 271 273 278 280 284 293 298 292 287 285 287 286 284 286 287 284 283 280 276 275 274 272 274 274 273 272 271 268 264 263 264 268 269 269 267
257 262 266 265 265 265 265 270 270 273 278 282 284 288 289 293 294 290 285 284 283 282 283 286 287 284 280 278 275 272 271 273 273 270 269 267 265 263 263 265 268 270 269 268
258 262 265 265 265 267 269 269 269 272 278 279 282 284 283 286 288 289 286 284 284 283 283 283 283 283 279 277 275 273 271 271 270 269 267 264 265 264 263 265 268 271 269 268
261 262 263 266 266 267 269 271 271 271 275 279 283 284 284 286 287 287 287 285 285 283 286 285 283 282 279 275 272 272 269 268 268 270 267 264 262 263 264 265 267 271 271 270
264 263 262 264 269 272 271 271 267 270 274 278 281 284 285 285 286 287 286 284 283 281 285 285 285 284 282 279 275 271 269 268 268 269 266 264 263 264 264 263 267 269 270 270
265 266 264 264 267 268 269 272 271 270 272 275 277 281 282 284 283 284 283 283 282 279 280 282 283 284 283 281 278 273 268 267 268 268 267 266 263 263 264 263 267 269 269 268
266 266 267 266 266 267 267 270 271 269 269 271 276 276 277 280 279 279 278 278 278 278 278 279 281 284 283 279 279 276 271 268 265 265 265 264 264 263 263 267 271 271 269 268
265 266 268 269 270 270 267 267 267 268 269 272 275 275 273 275 273 274 276 277 278 278 276 278 282 284 283 279 278 275 271 267 265 265 264 263 264 265 267 270 273 273 271 268
261 264 267 268 268 267 267 266 267 269 270 272 274 274 273 274 273 274 274 275 276 277 278 280 282 281 280 279 276 273 270 268 266 265 263 264 265 265 270 272 272 272 272 269
260 262 264 264 265 264 264 265 267 269 270 272 273 274 273 274 277 275 274 273 274 277 277 277 280 280 276 276 274 272 268 267 266 266 263 261 265 266 270 272 271 269 268 268
259 261 261 262 264 265 262 264 265 269 272 276 277 276 274 273 275 278 278 277 276 276 276 274 275 276 276 275 273 271 269 267 268 266 262 261 263 264 269 272 269 267 266 266
259 261 263 263 263 262 264 265 267 269 271 275 276 276 277 275 274 276 277 275 274 275 274 275 274 274 276 278 275 272 270 269 270 267 263 264 266 265 266 268 267 265 265 266
260 262 263 264 263 264 264 266 268 268 268 271 274 277 278 277 273 275 276 274 273 274 277 275 276 274 275 276 275 275 271 269 268 268 264 264 265 265 264 265 265 266 267 268
258 261 263 265 265 265 267 268 269 269 268 270 272 274 275 277 274 272 273 274 275 274 273 274 274 273 273 272 271 274 271 269 268 268 264 264 263 264 263 263 263 264 266 268
257 259 261 264 267 268 268 268 269 269 273 271 271 272 273 274 273 272 273 275 275 273 271 271 271 271 271 270 270 273 269 266 266 267 266 265 265 264 263 263 265 265 266 267
258 259 260 263 266 268 270 270 270 272 272 271 270 270 271 270 271 271 273 274 273 271 269 269 269 268 268 268 268 270 268 265 265 266 266 265 265 265 264 262 264 264 265 266
259 260 261 263 266 268 270 271 272 272 272 271 271 271 271 270 270 270 272 273 273 270 267 266 266 265 265 266 266 268 268 266 265 265 265 265 265 266 265 264 264 264 265 265
258 260 262 263 264 266 268 269 270 272 273 272 271 272 270 270 270 269 269 270 270 267 266 266 265 265 265 265 266 268 268 265 264 264 265 265 265 265 264 263 266 264 263 263
258 260 262 264 265 264 265 266 268 270 272 273 271 271 271 271 269 270 270 269 268 267 266 265 264 264 264 265 267 269 267 265 264 265 266 266 266 265 264 264 264 263 262 261
259 262 264 264 265 266 266 267 268 270 271 272 271 270 270 269 267 267 267 266 267 266 266 265 265 264 265 266 267 268 267 264 264 266 268 267 266 266 264 263 262 262 262 261
Height
5871 5872 5871 5871 5870 5870 5869 5869 5869 5869 5868 5869 5869 5869 5869 5868 5868 5868 5868 5869 5868 5868 5867 5867 5867 5867 5866 5866 5865 5865 5865 5865 5865 5864 5864 5863 5863 5863 5863 5863 5863 5863 5863 5863
5869 5869 5869 5868 5868 5867 5867 5867 5867 5867 5866 5866 5866 5867 5866 5866 5866 5866 5866 5866 5865 5865 5864 5864 5864 5863 5863 5863 5863 5862 5862 5862 5861 5861 5860 5860 5860 5860 5860 5860 5860 5860 5860 5860
5866 5867 5866 5866 5865 5865 5865 5865 5864 5864 5864 5864 5864 5865 5864 5864 5863 5863 5863 5862 5862 5861 5861 5861 5860 5860 5860 5860 5860 5859 5859 5859 5858 5858 5857 5857 5857 5857 5857 5857 5857 5857 5857 5857
5864 5864 5864 5863 5863 5863 5863 5862 5862 5861 5861 5861 5862 5862 5862 5861 5860 5860 5859 5859 5858 5858 5858 5857 5857 5857 5856 5856 5856 5856 5856 5855 5855 5854 5854 5854 5854 5854 5854 5854 5854 5854 5854 5854
5861 5861 5861 5861 5861 5860 5860 5860 5859 5859 5859 5859 5859 5858 5859 5858 5857 5857 5856 5856 5855 5855 5854 5854 5853 5853 5853 5852 5852 5852 5852 5851 5851 5851 5850 5850 5850 5850 5850 5851 5851 5851 5850 5850
5859 5858 5858 5858 5858 5858 5857 5858 5857 5856 5856 5857 5856 5855 5855 5854 5854 5853 5853 5852 5852 5851 5851 5851 5850 5849 5849 5849 5849 5848 5848 5847 5847 5847 5847 5847 5847 5847 5847 5847 5848 5848 5847 5847
5856 5856 5856 5856 5856 5855 5855 5855 5855 5854 5853 5853 5853 5852 5852 5851 5850 5850 5849 5849 5849 5848 5848 5847 5847 5846 5845 5845 5845 5845 5844 5844 5844 5844 5843 5843 5844 5844 5844 5844 5845 5845 5844 5844
5853 5854 5854 5853 5853 5853 5852 5852 5853 5852 5851 5850 5850 5849 5849 5848 5847 5846 5846 5846 5845 5844 5844 5844 5843 5843 5842 5841 5841 5841 5840 5840 5840 5840 5840 5840 5840 5840 5841 5841 5841 5841 5841 5841
5850 5851 5850 5850 5850 5850 5849 5848 5848 5848 5847 5847 5846 5846 5846 5845 5844 5843 5842 5842 5841 5841 5840 5840 5839 5839 5838 5838 5837 5837 5837 5837 5837 5836 5836 5837 5837 5837 5837 5837 5837 5837 5837 5837
5847 5847 5847 5847 5847 5846 5846 5845 5844 5844 5843 5842 5842 5842 5842 5841 5840 5840 5839 5838 5837 5837 5836 5836 5835 5834 5834 5834 5833 5833 5833 5833 5833 5833 5833 5833 5833 5834 5834 5834 5834 5834 5834 5833
5842 5843 5843 5843 5842 5842 5842 5841 5840 5840 5840 5839 5838 5840 5838 5837 5836 5835 5835 5834 5834 5833 5833 5832 5831 5830 5830 5830 5829 5829 5829 5829 5829 5829 5829 5829 5829 5829 5829 5830 5829 5829 5830 5829
5838 5838 5838 5838 5838 5837 5837 5837 5836 5837 5836 5834 5834 5837 5834 5833 5832 5831 5830 5830 5829 5829 5828 5828 5827 5826 5825 5825 5824 5824 5824 5824 5824 5824 5824 5825 5825 5825 5825 5825 5825 5825 5825 5825
5833 5833 5833 5833 5835 5834 5832 5832 5831 5831 5831 5830 5829 5832 5829 5828 5827 5827 5826 5825 5825 5824 5824 5823 5822 5822 5821 5820 5820 5820 5820 5820 5820 5820 5820 5821 5821 5821 5821 5821 5821 5821 5821 5820
5828 5828 5828 5829 5828 5828 5827 5827 5826 5826 5826 5825 5825 5825 5825 5823 5822 5822 5821 5821 5820 5819 5819 5818 5818 5817 5816 5816 5815 5815 5815 5815 5815 5816 5816 5816 5817 5817 5817 5816 5816 5816 5816 5816
5823 5823 5822 5822 5822 5822 5822 5822 5821 5821 5821 5821 5821 5820 5820 5818 5817 5817 5817 5816 5815 5815 5814 5813 5813 5812 5811 5811 5810 5810 5810 5810 5811 5811 5811 5812 5812 5812 5812 5812 5812 5811 5811 5811
5817 5817 5817 5817 5817 5816 5816 5816 5816 5816 5816 5815 5815 5815 5815 5813 5812 5812 5811 5811 5810 5809 5809 5808 5807 5807 5806 5805 5805 5805 5805 5805 5805 5806 5806 5807 5807 5807 5807 5807 5807 5807 5806 5806
5811 5811 5811 5811 5811 5810 5810 5812 5811 5811 5811 5810 5809 5811 5809 5807 5807 5806 5805 5805 5804 5804 5803 5802 5802 5801 5801 5800 5800 5800 5800 5800 5800 5801 5801 5801 5801 5802 5802 5802 5802 5802 5802 5802
5805 5804 5804 5804 5805 5804 5808 5806 5806 5805 5805 5804 5804 5804 5803 5802 5802 5801 5800 5799 5799 5798 5797 5797 5796 5796 5796 5795 5795 5795 5795 5795 5795 5796 5796 5796 5796 5796 5797 5797 5797 5797 5797 5797
5798 5798 5797 5797 5797 5797 5800 5800 5799 5798 5799 5799 5798 5798 5797 5796 5796 5796 5794 5793 5792 5791 5791 5790 5790 5790 5790 5790 5790 5790 5790 5790 5790 5790 5790 5790 5790 5791 5791 5791 5791 5791 5792 5792
5791 5791 5791 5790 5789 5790 5794 5793 5792 5792 5792 5793 5791 5791 5790 5790 5790 5790 5788 5787 5786 5785 5784 5784 5784 5784 5784 5784 5784 5784 5784 5784 5785 5785 5785 5785 5785 5785 5785 5786 5786 5786 5786 5786
5783 5783 5783 5783 5781 5782 5786 5786 5785 5785 5786 5786 5785 5784 5784 5783 5783 5783 5781 5780 5780 5779 5778 5778 5778 5778 5778 5778 5778 5778 5778 5779 5779 5779 5779 5779 5779 5780 5780 5780 5780 5781 5781 5781
5775 5775 5776 5775 5775 5778 5778 5777 5778 5778 5777 5777 5777 5777 5777 5776 5776 5775 5774 5773 5773 5772 5771 5771 5772 5772 5772 5772 5772 5773 5773 5773 5773 5773 5774 5774 5774 5774 5774 5774 5775 5775 5775 5776
5767 5768 5768 5769 5770 5770 5769 5769 5769 5769 5769 5769 5769 5769 5769 5769 5769 5768 5767 5767 5766 5765 5765 5765 5765 5766 5766 5766 5766 5766 5767 5767 5767 5767 5767 5767 5768 5768 5768 5768 5769 5769 5769 5770
5759 5759 5760 5760 5760 5761 5761 5761 5761 5761 5761 5760 5761 5761 5761 5761 5761 5761 5760 5760 5759 5759 5758 5758 5758 5758 5759 5759 5759 5759 5760 5760 5760 5761 5761 5761 5761 5761 5761 5762 5762 5762 5763 5763
5751 5751 5751 5752 5753 5753 5753 5753 5753 5753 5752 5752 5752 5752 5753 5752 5752 5752 5752 5752 5752 5751 5751 5751 5750 5751 5751 5752 5752 5752 5752 5752 5753 5754 5754 5754 5754 5754 5754 5755 5755 5755 5756 5756
5742 5742 5743 5744 5745 5745 5745 5745 5745 5745 5744 5744 5744 5744 5744 5743 5743 5743 5744 5744 5744 5744 5743 5743 5742 5743 5743 5744 5744 5745 5745 5745 5746 5746 5746 5746 5746 5747 5747 5747 5748 5748 5749 5749